Home > Time Zones > World Clock > Weather > Serbia > Niš > Past weeks

Flag for Serbia Weather past 2 weeks in Niš, Serbia

48 °F

Partly cloudy.

Feels Like: 46 °F
Forecast: 54 / 58 °F
Wind: 5 mph from Northwest

Location: Nis Airport

Current Time: Oct 9, 2015 at 2:48:30 AM

Latest Report: Oct 9, 2015 at 2:00 AM

Visibility: N/A

Pressure: 30.07 "Hg

Humidity: 94%

Dew point: 46 °F

Location of NišLocation

Historic Weather in Niš — Graph


Niš temperature yesterday

Maximum temperature yesterday: 61 °F (at 12:00 AM)
Minimum temperature yesterday: 48 °F (at 8:00 PM)
Average temperature yesterday: 54 °F

Past Weeks' High & Low Weather Summary

High82 °F (Sep 24, 1:00 PM)100% (Sep 25, 12:30 AM)30.42 "Hg (Sep 25, 12:30 AM)
Low41 °F (Oct 2, 4:30 AM)41% (Oct 3, 2:30 PM)29.80 "Hg (Sep 24, 2:30 PM)
Average60 °F80%30.10 "Hg
* Reported Sep 24 2:00 AM — Oct 9 2:00 AM, Niš, Weather by CustomWeather, © 2015

Note: Actual official high and low records may vary slightly from our data, if they occured in-between our weather recording intervals... More about our weather records


Niš weather history for previous 24 hours

Time TempWeatherWind HumidityBarometerVisibility
2:00 AM
Fri, Oct 9
48 °FPartly cloudy.5 mph94%30.07 "HgN/A
1:30 AM48 °FLight rain. Partly cloudy.2 mph94%30.07 "HgN/A
1:00 AM48 °FLight rain. Partly cloudy.5 mph94%30.07 "HgN/A
12:30 AM48 °FLight rain. Partly cloudy.3 mph94%30.07 "HgN/A
12:00 AM50 °FLight rain. Partly cloudy.6 mph94%30.07 "Hg4 mi
11:30 PM
Thu, Oct 8
48 °FRain. Fog.5 mph94%30.07 "Hg2 mi
11:00 PM48 °FLight rain. Partly cloudy.6 mph94%30.07 "Hg4 mi
10:30 PM48 °FRain. Fog.3 mph94%30.07 "Hg3 mi
10:00 PM48 °FRain. Fog.3 mph94%30.07 "Hg3 mi
9:30 PM48 °FRain. Fog.6 mph94%30.07 "Hg3 mi
9:00 PM48 °FRain. Fog.6 mph94%30.04 "Hg3 mi
8:30 PM48 °FRain. Partly cloudy.6 mph94%30.04 "Hg4 mi
8:00 PM48 °FRain. Passing clouds.7 mph87%30.04 "Hg5 mi
7:30 PM50 °FLight rain. Passing clouds.7 mph82%30.04 "Hg5 mi
7:00 PM50 °FLight rain. Partly sunny.7 mph82%30.04 "HgN/A
6:30 PM50 °FLight rain. Partly sunny.8 mph82%30.04 "HgN/A
6:00 PM50 °FLight rain. Broken clouds.10 mph82%30.04 "HgN/A
5:30 PM50 °FLight rain. Broken clouds.7 mph82%30.01 "HgN/A
5:00 PM50 °FRain. Broken clouds.8 mph88%30.01 "Hg4 mi
4:30 PM50 °FRain. Broken clouds.9 mph88%30.01 "Hg3 mi
4:00 PM50 °FLight rain. Broken clouds.9 mph88%30.01 "Hg5 mi
3:30 PM52 °FLight rain. Partly sunny.12 mph82%30.01 "HgN/A
3:00 PM52 °FLight rain. Partly sunny.7 mph82%30.01 "HgN/A
2:30 PM52 °FLight rain. Partly sunny.7 mph82%30.01 "HgN/A
2:00 PM54 °FLight rain. Partly sunny.6 mph82%30.01 "Hg5 mi
1:30 PM54 °FLight rain. Partly sunny.9 mph82%30.01 "Hg5 mi
1:00 PM54 °FLight rain. Partly sunny.12 mph82%30.01 "Hg5 mi
12:30 PM54 °FLight rain. Partly sunny.13 mph82%30.01 "Hg5 mi
12:00 PM55 °FLight rain. Partly sunny.12 mph82%30.01 "Hg5 mi
11:30 AM55 °FLight rain. Partly sunny.13 mph77%30.01 "Hg5 mi
11:00 AM55 °FPartly sunny.16 mph77%29.98 "HgN/A
10:30 AM55 °FPartly sunny.14 mph72%29.98 "HgN/A
10:00 AM54 °FPartly sunny.17 mph77%29.98 "HgN/A
9:30 AM54 °FLight rain. Partly sunny.20 mph77%29.98 "HgN/A
9:00 AM54 °FPartly sunny.18 mph77%29.98 "HgN/A
8:30 AM54 °FPartly sunny.20 mph82%29.95 "HgN/A
8:00 AM54 °FPartly sunny.20 mph82%29.95 "HgN/A
7:30 AM55 °FPassing clouds.15 mph82%29.95 "HgN/A
7:00 AM55 °FLight rain. Passing clouds.16 mph82%29.92 "HgN/A
6:30 AM57 °FLight rain. Passing clouds.16 mph77%29.92 "HgN/A
6:00 AM57 °FPassing clouds.13 mph77%29.92 "HgN/A
5:30 AM57 °FLight rain. Passing clouds.14 mph82%29.92 "HgN/A
5:00 AM57 °FLight rain. Passing clouds.12 mph82%29.92 "HgN/A
4:30 AM59 °FLight rain. Passing clouds.9 mph82%29.92 "HgN/A
4:00 AM59 °FLight rain. Passing clouds.8 mph82%29.92 "HgN/A
3:30 AM61 °FLight rain. Passing clouds.8 mph83%29.89 "HgN/A
3:00 AM61 °FPassing clouds.5 mph88%29.89 "HgN/A
2:30 AM61 °FPassing clouds.5 mph88%29.89 "HgN/A
2:00 AM61 °FPassing clouds.5 mph83%29.89 "HgN/A
Weather by CustomWeather, © 2015

See weather overviewHow to use our weather pages